When you browse on this site, cookies collect data to enhance your experience and personalize the content and advertising you see.
Visit our Privacy Policy to learn more. By continuing to use the site, you agree to this use of cookies and data.

Hourly Weather Nyiregyhaza

Today, 14 August, Friday

Time Temperature Precipitation Wind Pressure Humidity
00:00 +21°C° 0.1 mm 2 mps 752 mmHg 77%
01:00 +21°C° 0 mm 1 mps 752 mmHg 84%
02:00 +21°C° 0.2 mm 1 mps 752 mmHg 84%
03:00 +21°C° 0.2 mm 1 mps 751 mmHg 85%
04:00 +20°C° 0.2 mm 1 mps 751 mmHg 85%
05:00 +21°C° 0.1 mm 1 mps 751 mmHg 82%
06:00 +22°C° 0.1 mm 1 mps 751 mmHg 80%
07:00 +23°C° 0 mm 1 mps 751 mmHg 77%
08:00 +25°C° 0 mm 2 mps 751 mmHg 71%
09:00 +26°C° 0 mm 2 mps 751 mmHg 65%
10:00 +27°C° 0 mm 2 mps 751 mmHg 60%
11:00 +28°C° 0.2 mm 2 mps 751 mmHg 56%
12:00 +29°C° 0.2 mm 1 mps 751 mmHg 52%
13:00 +30°C° 0 mm 1 mps 751 mmHg 48%
14:00 +30°C° 0 mm 1 mps 750 mmHg 47%
15:00 +30°C° 0 mm 1 mps 750 mmHg 47%
16:00 +30°C° 0 mm 2 mps 750 mmHg 46%
17:00 +28°C° 0 mm 2 mps 750 mmHg 50%
18:00 +26°C° 0 mm 1 mps 750 mmHg 55%
19:00 +25°C° 0 mm 1 mps 750 mmHg 59%
20:00 +24°C° 0 mm 1 mps 750 mmHg 62%
21:00 +23°C° 0 mm 1 mps 750 mmHg 64%
22:00 +22°C° 0 mm 1 mps 750 mmHg 67%
23:00 +22°C° 0 mm 1 mps 750 mmHg 70%

Tomorrow, 15 August, Saturday

Time Temperature Precipitation Wind Pressure Humidity
00:00 +21°C° 0 mm 1 mps 750 mmHg 72%
01:00 +21°C° 0 mm 1 mps 750 mmHg 75%
02:00 +20°C° 0 mm 2 mps 750 mmHg 76%
03:00 +19°C° 0 mm 2 mps 750 mmHg 77%
04:00 +19°C° 0 mm 2 mps 750 mmHg 78%
05:00 +20°C° 0 mm 2 mps 750 mmHg 76%
06:00 +21°C° 0 mm 2 mps 749 mmHg 74%
07:00 +21°C° 0 mm 2 mps 749 mmHg 72%
08:00 +23°C° 0 mm 2 mps 750 mmHg 69%
09:00 +24°C° 0 mm 2 mps 750 mmHg 66%
10:00 +25°C° 0 mm 2 mps 750 mmHg 63%
11:00 +27°C° 0 mm 1 mps 750 mmHg 60%
12:00 +28°C° 0 mm 1 mps 749 mmHg 57%
13:00 +29°C° 0 mm 1 mps 749 mmHg 54%
14:00 +29°C° 0 mm 1 mps 749 mmHg 53%
15:00 +29°C° 0 mm 1 mps 749 mmHg 53%
16:00 +29°C° 0 mm 1 mps 749 mmHg 53%
17:00 +27°C° 0 mm 1 mps 749 mmHg 59%
18:00 +25°C° 0 mm 1 mps 749 mmHg 65%
19:00 +24°C° 0 mm 1 mps 749 mmHg 70%
20:00 +23°C° 0.1 mm 1 mps 749 mmHg 73%
21:00 +22°C° 0.1 mm 1 mps 749 mmHg 76%
22:00 +22°C° 0.1 mm 1 mps 749 mmHg 79%
23:00 +21°C° 0.1 mm 1 mps 749 mmHg 80%

Day after tomorrow, 16 August, Sunday

Time Temperature Precipitation Wind Pressure Humidity
00:00 +20°C° 0.1 mm 2 mps 749 mmHg 82%
01:00 +20°C° 0.1 mm 2 mps 749 mmHg 84%
02:00 +19°C° 0 mm 2 mps 749 mmHg 85%
03:00 +19°C° 0 mm 2 mps 749 mmHg 87%
04:00 +19°C° 0 mm 2 mps 749 mmHg 89%
05:00 +20°C° 0 mm 2 mps 749 mmHg 86%
06:00 +20°C° 0 mm 2 mps 749 mmHg 82%
07:00 +21°C° 0 mm 2 mps 750 mmHg 79%
08:00 +24°C° 0 mm 2 mps 750 mmHg 73%
09:00 +25°C° 0 mm 2 mps 750 mmHg 67%
10:00 +27°C° 0 mm 2 mps 750 mmHg 61%
11:00 +28°C° 0 mm 2 mps 750 mmHg 59%
12:00 +28°C° 0 mm 2 mps 750 mmHg 56%
13:00 +29°C° 0 mm 2 mps 750 mmHg 54%
14:00 +29°C° 0 mm 2 mps 750 mmHg 57%
15:00 +28°C° 0 mm 2 mps 750 mmHg 59%
16:00 +28°C° 0 mm 2 mps 750 mmHg 62%
17:00 +27°C° 0.2 mm 2 mps 750 mmHg 67%
18:00 +25°C° 0.2 mm 2 mps 750 mmHg 71%
19:00 +24°C° 0.2 mm 2 mps 750 mmHg 76%
20:00 +23°C° 0.7 mm 2 mps 750 mmHg 80%
21:00 +21°C° 0.7 mm 2 mps 751 mmHg 84%
22:00 +21°C° 0.7 mm 2 mps 751 mmHg 88%
23:00 +20°C° 0.3 mm 2 mps 751 mmHg 89%

17 August, Monday

Time Temperature Precipitation Wind Pressure Humidity
00:00 +20°C° 0.3 mm 2 mps 751 mmHg 90%
01:00 +21°C° 0.3 mm 1 mps 751 mmHg 90%
02:00 +21°C° 0.2 mm 1 mps 751 mmHg 91%
03:00 +20°C° 0.2 mm 1 mps 751 mmHg 92%
04:00 +20°C° 0.2 mm 1 mps 751 mmHg 93%
05:00 +21°C° 0.1 mm 1 mps 751 mmHg 90%
06:00 +22°C° 0.1 mm 1 mps 751 mmHg 87%
07:00 +23°C° 0.1 mm 1 mps 751 mmHg 84%
08:00 +25°C° 0 mm 1 mps 751 mmHg 76%
09:00 +26°C° 0 mm 2 mps 751 mmHg 69%
10:00 +27°C° 0 mm 2 mps 751 mmHg 61%
11:00 +28°C° 0 mm 2 mps 751 mmHg 57%
12:00 +30°C° 0 mm 2 mps 751 mmHg 53%
13:00 +31°C° 0 mm 3 mps 750 mmHg 50%
14:00 +31°C° 0 mm 3 mps 750 mmHg 51%
15:00 +30°C° 0 mm 3 mps 750 mmHg 52%
16:00 +30°C° 0 mm 2 mps 749 mmHg 53%
17:00 +29°C° 0 mm 2 mps 750 mmHg 58%
18:00 +27°C° 0 mm 2 mps 750 mmHg 62%
19:00 +26°C° 0 mm 2 mps 750 mmHg 67%
20:00 +25°C° 0 mm 2 mps 750 mmHg 68%
21:00 +24°C° 0 mm 2 mps 750 mmHg 69%
22:00 +24°C° 0 mm 2 mps 750 mmHg 69%
23:00 +23°C° 0 mm 2 mps 750 mmHg 70%

18 August, Tuesday

Time Temperature Precipitation Wind Pressure Humidity
00:00 +23°C° 0 mm 2 mps 750 mmHg 71%
01:00 +21°C° 0 mm 2 mps 749 mmHg 73%
02:00 +21°C° 0 mm 2 mps 749 mmHg 73%
03:00 +22°C° 0 mm 1 mps 749 mmHg 73%
04:00 +21°C° 0 mm 1 mps 749 mmHg 73%
05:00 +22°C° 0.1 mm 1 mps 749 mmHg 72%
06:00 +23°C° 0.1 mm 1 mps 749 mmHg 71%
07:00 +24°C° 0.1 mm 2 mps 749 mmHg 70%
08:00 +26°C° 0.1 mm 2 mps 749 mmHg 64%
09:00 +27°C° 0.1 mm 2 mps 749 mmHg 59%
10:00 +29°C° 0.1 mm 3 mps 749 mmHg 53%
11:00 +30°C° 0 mm 3 mps 748 mmHg 51%
12:00 +31°C° 0 mm 3 mps 748 mmHg 48%
13:00 +33°C° 0 mm 4 mps 748 mmHg 46%
14:00 +33°C° 0 mm 3 mps 748 mmHg 47%
15:00 +33°C° 0 mm 3 mps 747 mmHg 48%
16:00 +33°C° 0 mm 3 mps 747 mmHg 49%
17:00 +30°C° 0 mm 3 mps 747 mmHg 55%
18:00 +28°C° 0 mm 3 mps 747 mmHg 62%
19:00 +26°C° 0 mm 3 mps 747 mmHg 68%
20:00 +25°C° 0 mm 2 mps 747 mmHg 73%
21:00 +24°C° 0 mm 2 mps 747 mmHg 77%
22:00 +24°C° 0 mm 2 mps 747 mmHg 81%
23:00 +23°C° 0 mm 2 mps 747 mmHg 84%

19 August, Wednesday

Time Temperature Precipitation Wind Pressure Humidity
00:00 +22°C° 0 mm 1 mps 747 mmHg 87%
01:00 +22°C° 0 mm 1 mps 747 mmHg 90%
02:00 +22°C° 0 mm 1 mps 747 mmHg 91%
03:00 +21°C° 0 mm 1 mps 747 mmHg 92%
04:00 +21°C° 0 mm 1 mps 747 mmHg 93%
05:00 +22°C° 0 mm 1 mps 747 mmHg 89%
06:00 +21°C° 0 mm 2 mps 747 mmHg 86%
07:00 +23°C° 0 mm 2 mps 747 mmHg 82%
08:00 +25°C° 0 mm 2 mps 747 mmHg 77%
09:00 +26°C° 0 mm 2 mps 747 mmHg 71%
10:00 +28°C° 0 mm 2 mps 747 mmHg 66%
11:00 +28°C° 0 mm 2 mps 747 mmHg 62%
12:00 +29°C° 0 mm 1 mps 747 mmHg 58%
13:00 +30°C° 0 mm 1 mps 746 mmHg 54%
14:00 +30°C° 0.1 mm 1 mps 746 mmHg 53%
15:00 +30°C° 0.1 mm 1 mps 746 mmHg 53%
16:00 +30°C° 0.1 mm 1 mps 745 mmHg 52%
17:00 +28°C° 0.6 mm 2 mps 745 mmHg 61%
18:00 +26°C° 0.6 mm 3 mps 745 mmHg 69%
19:00 +23°C° 0.6 mm 4 mps 745 mmHg 78%
20:00 +22°C° 1 mm 3 mps 746 mmHg 82%
21:00 +21°C° 1 mm 3 mps 746 mmHg 87%
22:00 +20°C° 1 mm 2 mps 746 mmHg 91%
23:00 +20°C° 0.3 mm 2 mps 746 mmHg 91%
Show more